contact:dominique.lefevre@mio.osupytheas.fr, maurice.libes@osupytheas.fr, didier.mallarino@osupytheas.fr
Project:EMSO http://www.emso-fr.org/EMSO-France
Depth: 2436.0 m
Title:EMSO Ligure Ouest : Data MII capteur CSTAR
DateTime,Latitude,Longitude,Instrument_Serial,Reference_Counts,Signal_Counts,Corrected_Signal_raw_counts,Calculated_Beam_c_inverse_meters,Internal_thermistor_counts
DateTime,Latitude,Longitude,Instrument_Serial,Reference_Counts,Signal_Counts,Corrected_Signal_raw_counts,Calculated_Beam_c_inverse_meters,Internal_thermistor_counts
2024-05-01T00:00:22,42.805,6.029,CST-1368DR,4089,4218,10930,01.427,553
2024-05-01T00:03:24,42.805,6.029,CST-1368DR,4089,4218,10929,01.428,553
2024-05-01T00:06:25,42.805,6.029,CST-1368DR,4089,4213,10916,01.432,553
2024-05-01T00:09:27,42.805,6.029,CST-1368DR,4089,4214,10918,01.432,553
2024-05-01T00:12:28,42.805,6.029,CST-1368DR,4089,4214,10918,01.432,553
2024-05-01T00:15:30,42.805,6.029,CST-1368DR,4089,4217,10926,01.429,553
2024-05-01T00:18:32,42.805,6.029,CST-1368DR,4089,4216,10924,01.429,553
2024-05-01T00:21:33,42.805,6.029,CST-1368DR,4089,4216,10924,01.429,553
2024-05-01T00:24:35,42.805,6.029,CST-1368DR,4089,4215,10923,01.430,553
2024-05-01T00:27:36,42.805,6.029,CST-1368DR,4089,4216,10924,01.429,553
2024-05-01T00:30:38,42.805,6.029,CST-1368DR,4089,4216,10924,01.429,553
2024-05-01T00:33:39,42.805,6.029,CST-1368DR,4089,4212,10914,01.433,553
2024-05-01T00:36:41,42.805,6.029,CST-1368DR,4089,4217,10926,01.429,553
2024-05-01T00:39:43,42.805,6.029,CST-1368DR,4089,4217,10926,01.429,553
2024-05-01T00:42:44,42.805,6.029,CST-1368DR,4089,4219,10931,01.427,553
2024-05-01T00:45:46,42.805,6.029,CST-1368DR,4089,4216,10925,01.429,553
2024-05-01T00:48:47,42.805,6.029,CST-1368DR,4089,4217,10928,01.428,553
2024-05-01T00:51:49,42.805,6.029,CST-1368DR,4089,4216,10925,01.429,553
2024-05-01T00:54:50,42.805,6.029,CST-1368DR,4089,4218,10930,01.427,553
2024-05-01T00:57:52,42.805,6.029,CST-1368DR,4089,4214,10920,01.431,553
2024-05-01T01:00:54,42.805,6.029,CST-1368DR,4089,4213,10915,01.433,553
2024-05-01T01:03:55,42.805,6.029,CST-1368DR,4089,4217,10926,01.429,553
2024-05-01T01:06:57,42.805,6.029,CST-1368DR,4089,4217,10926,01.429,553
2024-05-01T01:09:58,42.805,6.029,CST-1368DR,4089,4225,10948,01.421,553
2024-05-01T01:13:00,42.805,6.029,CST-1368DR,4089,4219,10932,01.426,553
2024-05-01T01:16:02,42.805,6.029,CST-1368DR,4089,4217,10926,01.429,553
2024-05-01T01:19:03,42.805,6.029,CST-1368DR,4089,4219,10933,01.426,553
2024-05-01T01:22:05,42.805,6.029,CST-1368DR,4089,4217,10926,01.429,553
2024-05-01T01:25:06,42.805,6.029,CST-1368DR,4089,4220,10934,01.426,553
2024-05-01T01:28:08,42.805,6.029,CST-1368DR,4089,4218,10930,01.427,553
2024-05-01T01:31:09,42.805,6.029,CST-1368DR,4089,4218,10929,01.428,553
2024-05-01T01:34:11,42.805,6.029,CST-1368DR,4089,4220,10934,01.426,553
2024-05-01T01:37:13,42.805,6.029,CST-1368DR,4089,4219,10933,01.426,553
2024-05-01T01:40:14,42.805,6.029,CST-1368DR,4089,4220,10936,01.425,553
2024-05-01T01:43:16,42.805,6.029,CST-1368DR,4089,4219,10932,01.426,553
2024-05-01T01:46:17,42.805,6.029,CST-1368DR,4089,4219,10932,01.426,553
2024-05-01T01:49:19,42.805,6.029,CST-1368DR,4089,4219,10931,01.427,553
2024-05-01T01:52:20,42.805,6.029,CST-1368DR,4089,4219,10933,01.426,553
2024-05-01T01:55:22,42.805,6.029,CST-1368DR,4089,4216,10924,01.429,553
2024-05-01T01:58:24,42.805,6.029,CST-1368DR,4089,4218,10929,01.428,553
2024-05-01T02:01:25,42.805,6.029,CST-1368DR,4089,4217,10926,01.429,553
2024-05-01T02:04:26,42.805,6.029,CST-1368DR,4089,4216,10923,01.430,553
2024-05-01T02:07:28,42.805,6.029,CST-1368DR,4089,4213,10917,01.432,553
2024-05-01T02:10:30,42.805,6.029,CST-1368DR,4089,4218,10928,01.428,553
2024-05-01T02:13:31,42.805,6.029,CST-1368DR,4089,4218,10930,01.427,553
2024-05-01T02:16:33,42.805,6.029,CST-1368DR,4089,4220,10934,01.426,553
2024-05-01T02:19:34,42.805,6.029,CST-1368DR,4089,4220,10934,01.426,553
2024-05-01T02:22:36,42.805,6.029,CST-1368DR,4089,4220,10934,01.426,553
2024-05-01T02:25:37,42.805,6.029,CST-1368DR,4089,4217,10927,01.428,553
2024-05-01T02:28:39,42.805,6.029,CST-1368DR,4089,4212,10915,01.433,553
2024-05-01T02:31:41,42.805,6.029,CST-1368DR,4089,4220,10935,01.425,553
2024-05-01T02:34:42,42.805,6.029,CST-1368DR,4089,4221,10936,01.425,553
2024-05-01T02:37:44,42.805,6.029,CST-1368DR,4089,4221,10937,01.425,553
2024-05-01T02:40:45,42.805,6.029,CST-1368DR,4089,4219,10933,01.426,553
2024-05-01T02:43:47,42.805,6.029,CST-1368DR,4089,4220,10935,01.425,553
2024-05-01T02:46:49,42.805,6.029,CST-1368DR,4089,4220,10934,01.426,553
2024-05-01T02:49:50,42.805,6.029,CST-1368DR,4089,4219,10932,01.426,553
2024-05-01T02:52:52,42.805,6.029,CST-1368DR,4089,4222,10939,01.424,553
2024-05-01T02:55:53,42.805,6.029,CST-1368DR,4089,4219,10933,01.426,553
2024-05-01T02:58:55,42.805,6.029,CST-1368DR,4089,4219,10932,01.426,553
2024-05-01T03:01:56,42.805,6.029,CST-1368DR,4089,4220,10936,01.425,553
2024-05-01T03:04:58,42.805,6.029,CST-1368DR,4089,4215,10923,01.430,553
2024-05-01T03:08:00,42.805,6.029,CST-1368DR,4089,4216,10924,01.429,553
2024-05-01T03:11:01,42.805,6.029,CST-1368DR,4089,4218,10930,01.427,553
2024-05-01T03:14:03,42.805,6.029,CST-1368DR,4089,4216,10924,01.429,553
2024-05-01T03:17:04,42.805,6.029,CST-1368DR,4089,4220,10934,01.426,553
2024-05-01T03:20:06,42.805,6.029,CST-1368DR,4089,4219,10933,01.426,553
2024-05-01T03:23:07,42.805,6.029,CST-1368DR,4089,4219,10931,01.427,553
2024-05-01T03:26:09,42.805,6.029,CST-1368DR,4089,4220,10935,01.425,553
2024-05-01T03:29:11,42.805,6.029,CST-1368DR,4089,4220,10934,01.426,553
2024-05-01T03:32:12,42.805,6.029,CST-1368DR,4089,4220,10934,01.426,553
2024-05-01T03:35:14,42.805,6.029,CST-1368DR,4089,4218,10930,01.427,553
2024-05-01T03:38:15,42.805,6.029,CST-1368DR,4089,4220,10935,01.425,553
2024-05-01T03:41:17,42.805,6.029,CST-1368DR,4089,4220,10936,01.425,553
2024-05-01T03:44:19,42.805,6.029,CST-1368DR,4089,4219,10931,01.427,553
2024-05-01T03:47:20,42.805,6.029,CST-1368DR,4089,4218,10930,01.427,553
2024-05-01T03:50:22,42.805,6.029,CST-1368DR,4089,4220,10934,01.426,553
2024-05-01T03:53:23,42.805,6.029,CST-1368DR,4089,4219,10933,01.426,553
2024-05-01T03:56:25,42.805,6.029,CST-1368DR,4089,4216,10925,01.429,553
2024-05-01T03:59:26,42.805,6.029,CST-1368DR,4089,4220,10934,01.426,553
2024-05-01T04:02:30,42.805,6.029,CST-1368DR,4089,4220,10936,01.425,553
2024-05-01T04:05:31,42.805,6.029,CST-1368DR,4089,4218,10929,01.428,553
2024-05-01T04:08:33,42.805,6.029,CST-1368DR,4089,4221,10937,01.425,553
2024-05-01T04:11:35,42.805,6.029,CST-1368DR,4089,4221,10936,01.425,553
2024-05-01T04:14:36,42.805,6.029,CST-1368DR,4089,4219,10932,01.426,553
2024-05-01T04:17:38,42.805,6.029,CST-1368DR,4089,4218,10930,01.427,553
2024-05-01T04:20:39,42.805,6.029,CST-1368DR,4089,4220,10934,01.426,553
2024-05-01T04:23:41,42.805,6.029,CST-1368DR,4089,4219,10932,01.426,553
2024-05-01T04:26:42,42.805,6.029,CST-1368DR,4089,4219,10933,01.426,553
2024-05-01T04:29:44,42.805,6.029,CST-1368DR,4089,4213,10916,01.432,553
2024-05-01T04:32:46,42.805,6.029,CST-1368DR,4089,4217,10926,01.429,553
2024-05-01T04:35:47,42.805,6.029,CST-1368DR,4089,4209,10905,01.436,553
2024-05-01T04:38:49,42.805,6.029,CST-1368DR,4089,4217,10926,01.429,553
2024-05-01T04:41:50,42.805,6.029,CST-1368DR,4089,4215,10923,01.430,553
2024-05-01T04:44:52,42.805,6.029,CST-1368DR,4089,4214,10919,01.431,553
2024-05-01T04:47:54,42.805,6.029,CST-1368DR,4089,4209,10907,01.436,553
2024-05-01T04:50:55,42.805,6.029,CST-1368DR,4089,4212,10913,01.433,553
2024-05-01T04:53:57,42.805,6.029,CST-1368DR,4089,4209,10905,01.436,553
2024-05-01T04:56:58,42.805,6.029,CST-1368DR,4089,4215,10922,01.430,553
2024-05-01T05:00:00,42.805,6.029,CST-1368DR,4089,4217,10926,01.429,553
2024-05-01T05:03:01,42.805,6.029,CST-1368DR,4089,4214,10919,01.431,553
2024-05-01T05:06:03,42.805,6.029,CST-1368DR,4089,4215,10922,01.430,553
2024-05-01T05:09:05,42.805,6.029,CST-1368DR,4089,4214,10919,01.431,553
2024-05-01T05:12:06,42.805,6.029,CST-1368DR,4089,4218,10928,01.428,553
2024-05-01T05:15:08,42.805,6.029,CST-1368DR,4089,4217,10926,01.429,553
2024-05-01T05:18:09,42.805,6.029,CST-1368DR,4089,4218,10929,01.428,553
2024-05-01T05:21:11,42.805,6.029,CST-1368DR,4089,4218,10928,01.428,553
2024-05-01T05:24:12,42.805,6.029,CST-1368DR,4089,4218,10928,01.428,553
2024-05-01T05:27:14,42.805,6.029,CST-1368DR,4089,4217,10926,01.429,553
2024-05-01T05:30:16,42.805,6.029,CST-1368DR,4089,4218,10929,01.428,553
2024-05-01T05:33:17,42.805,6.029,CST-1368DR,4089,4218,10928,01.428,553
2024-05-01T05:36:19,42.805,6.029,CST-1368DR,4089,4218,10930,01.427,553
2024-05-01T05:39:20,42.805,6.029,CST-1368DR,4089,4217,10926,01.429,553
2024-05-01T05:42:22,42.805,6.029,CST-1368DR,4089,4219,10931,01.427,553
2024-05-01T05:45:23,42.805,6.029,CST-1368DR,4089,4219,10932,01.426,553
2024-05-01T05:48:25,42.805,6.029,CST-1368DR,4089,4220,10936,01.425,553
2024-05-01T05:51:27,42.805,6.029,CST-1368DR,4089,4218,10928,01.428,553
2024-05-01T05:54:28,42.805,6.029,CST-1368DR,4089,4220,10934,01.426,553
2024-05-01T05:57:30,42.805,6.029,CST-1368DR,4089,4219,10932,01.426,553
2024-05-01T06:00:34,42.805,6.029,CST-1368DR,4089,4215,10922,01.430,553
2024-05-01T06:03:36,42.805,6.029,CST-1368DR,4089,4216,10924,01.429,553
2024-05-01T06:06:38,42.805,6.029,CST-1368DR,4089,4219,10932,01.426,553
2024-05-01T06:09:39,42.805,6.029,CST-1368DR,4089,4216,10924,01.429,553
2024-05-01T06:12:41,42.805,6.029,CST-1368DR,4089,4219,10932,01.426,553
2024-05-01T06:15:42,42.805,6.029,CST-1368DR,4089,4216,10924,01.429,553
2024-05-01T06:18:44,42.805,6.029,CST-1368DR,4089,4221,10936,01.425,553
2024-05-01T06:21:46,42.805,6.029,CST-1368DR,4089,4216,10925,01.429,553
2024-05-01T06:24:47,42.805,6.029,CST-1368DR,4089,4225,10948,01.421,553
2024-05-01T06:27:49,42.805,6.029,CST-1368DR,4089,4223,10941,01.423,553
2024-05-01T06:30:50,42.805,6.029,CST-1368DR,4089,4221,10936,01.425,553
2024-05-01T06:33:52,42.805,6.029,CST-1368DR,4089,4217,10926,01.429,553
2024-05-01T06:36:53,42.805,6.029,CST-1368DR,4089,4219,10931,01.427,553
2024-05-01T06:39:55,42.805,6.029,CST-1368DR,4089,4219,10932,01.426,553
2024-05-01T06:42:57,42.805,6.029,CST-1368DR,4089,4214,10919,01.431,553
2024-05-01T06:45:58,42.805,6.029,CST-1368DR,4089,4216,10923,01.430,553
2024-05-01T06:49:00,42.805,6.029,CST-1368DR,4089,4217,10927,01.428,553
2024-05-01T06:52:01,42.805,6.029,CST-1368DR,4089,4220,10934,01.426,553
2024-05-01T06:55:03,42.805,6.029,CST-1368DR,4089,4220,10934,01.426,553
2024-05-01T06:58:04,42.805,6.029,CST-1368DR,4089,4214,10919,01.431,553
2024-05-01T07:01:06,42.805,6.029,CST-1368DR,4089,4213,10915,01.433,553
2024-05-01T07:04:08,42.805,6.029,CST-1368DR,4089,4218,10928,01.428,553
2024-05-01T07:07:09,42.805,6.029,CST-1368DR,4089,4214,10919,01.431,553
2024-05-01T07:10:11,42.805,6.029,CST-1368DR,4089,4213,10916,01.432,553
2024-05-01T07:13:12,42.805,6.029,CST-1368DR,4089,4220,10934,01.426,553
2024-05-01T07:16:14,42.805,6.029,CST-1368DR,4089,4219,10932,01.426,553
2024-05-01T07:19:16,42.805,6.029,CST-1368DR,4089,4219,10932,01.426,553
2024-05-01T07:22:17,42.805,6.029,CST-1368DR,4089,4218,10928,01.428,553
2024-05-01T07:25:19,42.805,6.029,CST-1368DR,4089,4220,10934,01.426,553
2024-05-01T07:28:20,42.805,6.029,CST-1368DR,4089,4216,10924,01.429,553
2024-05-01T07:31:22,42.805,6.029,CST-1368DR,4089,4217,10928,01.428,553
2024-05-01T07:34:23,42.805,6.029,CST-1368DR,4089,4212,10913,01.433,553
2024-05-01T07:37:25,42.805,6.029,CST-1368DR,4089,4218,10930,01.427,553
2024-05-01T07:40:27,42.805,6.029,CST-1368DR,4089,4214,10920,01.431,553
2024-05-01T07:43:28,42.805,6.029,CST-1368DR,4089,4209,10906,01.436,553
2024-05-01T07:46:30,42.805,6.029,CST-1368DR,4089,4217,10926,01.429,553
2024-05-01T07:49:31,42.805,6.029,CST-1368DR,4089,4217,10928,01.428,553
2024-05-01T07:52:33,42.805,6.029,CST-1368DR,4089,4213,10917,01.432,553
2024-05-01T07:55:35,42.805,6.029,CST-1368DR,4089,4215,10921,01.430,553
2024-05-01T07:58:36,42.805,6.029,CST-1368DR,4089,4206,10899,01.438,553
2024-05-01T08:01:40,42.805,6.029,CST-1368DR,4089,4208,10903,01.437,553
2024-05-01T08:04:42,42.805,6.029,CST-1368DR,4089,4210,10908,01.435,553
2024-05-01T08:07:43,42.805,6.029,CST-1368DR,4089,4209,10906,01.436,553
2024-05-01T08:10:45,42.805,6.029,CST-1368DR,4089,4213,10916,01.432,553
2024-05-01T08:13:46,42.805,6.029,CST-1368DR,4089,4216,10924,01.429,553
2024-05-01T08:16:48,42.805,6.029,CST-1368DR,4089,4208,10904,01.437,553
2024-05-01T08:19:50,42.805,6.029,CST-1368DR,4089,4213,10915,01.433,553
2024-05-01T08:22:51,42.805,6.029,CST-1368DR,4089,4210,10910,01.434,553
2024-05-01T08:25:53,42.805,6.029,CST-1368DR,4089,4209,10907,01.436,553
2024-05-01T08:28:54,42.805,6.029,CST-1368DR,4089,4212,10914,01.433,553
2024-05-01T08:31:56,42.805,6.029,CST-1368DR,4089,4210,10910,01.434,553
2024-05-01T08:34:58,42.805,6.029,CST-1368DR,4089,4213,10917,01.432,553
2024-05-01T08:37:59,42.805,6.029,CST-1368DR,4089,4215,10922,01.430,553
2024-05-01T08:41:01,42.805,6.029,CST-1368DR,4089,4214,10919,01.431,553
2024-05-01T08:44:02,42.805,6.029,CST-1368DR,4089,4214,10920,01.431,553
2024-05-01T08:47:04,42.805,6.029,CST-1368DR,4089,4214,10919,01.431,553
2024-05-01T08:50:05,42.805,6.029,CST-1368DR,4089,4213,10915,01.433,553
2024-05-01T08:53:07,42.805,6.029,CST-1368DR,4089,4215,10921,01.430,553
2024-05-01T08:56:09,42.805,6.029,CST-1368DR,4089,4216,10923,01.430,553
2024-05-01T08:59:10,42.805,6.029,CST-1368DR,4089,4205,10895,01.440,553
2024-05-01T09:02:12,42.805,6.029,CST-1368DR,4089,4213,10917,01.432,553
2024-05-01T09:05:13,42.805,6.029,CST-1368DR,4089,4210,10909,01.435,553
2024-05-01T09:08:15,42.805,6.029,CST-1368DR,4089,4212,10915,01.433,553
2024-05-01T09:11:16,42.805,6.029,CST-1368DR,4089,4214,10919,01.431,553
2024-05-01T09:14:18,42.805,6.029,CST-1368DR,4089,4208,10902,01.437,553
2024-05-01T09:17:20,42.805,6.029,CST-1368DR,4089,4214,10920,01.431,553
2024-05-01T09:20:21,42.805,6.029,CST-1368DR,4089,4210,10909,01.435,553
2024-05-01T09:23:23,42.805,6.029,CST-1368DR,4089,4210,10908,01.435,553
2024-05-01T09:26:24,42.805,6.029,CST-1368DR,4089,4212,10913,01.433,553
2024-05-01T09:29:26,42.805,6.029,CST-1368DR,4089,4210,10908,01.435,553
2024-05-01T09:32:28,42.805,6.029,CST-1368DR,4089,4208,10904,01.437,553
2024-05-01T09:35:29,42.805,6.029,CST-1368DR,4089,4210,10908,01.435,553
2024-05-01T09:38:31,42.805,6.029,CST-1368DR,4089,4213,10917,01.432,553
2024-05-01T09:41:32,42.805,6.029,CST-1368DR,4089,4209,10906,01.436,553
2024-05-01T09:44:34,42.805,6.029,CST-1368DR,4089,4211,10910,01.434,553
2024-05-01T09:47:35,42.805,6.029,CST-1368DR,4089,4210,10908,01.435,553
2024-05-01T09:50:37,42.805,6.029,CST-1368DR,4088,4210,10910,01.434,553
2024-05-01T09:53:39,42.805,6.029,CST-1368DR,4089,4211,10910,01.434,553
2024-05-01T09:56:40,42.805,6.029,CST-1368DR,4089,4212,10913,01.433,553
2024-05-01T09:59:42,42.805,6.029,CST-1368DR,4089,4211,10910,01.434,553
2024-05-01T10:02:45,42.805,6.029,CST-1368DR,4089,4213,10917,01.432,553
2024-05-01T10:05:46,42.805,6.029,CST-1368DR,4089,4213,10916,01.432,553
2024-05-01T10:08:48,42.805,6.029,CST-1368DR,4089,4212,10914,01.433,553
2024-05-01T10:11:50,42.805,6.029,CST-1368DR,4089,4209,10906,01.436,553
2024-05-01T10:14:51,42.805,6.029,CST-1368DR,4089,4212,10913,01.433,553
2024-05-01T10:17:53,42.805,6.029,CST-1368DR,4088,4210,10911,01.434,553
2024-05-01T10:20:54,42.805,6.029,CST-1368DR,4088,4213,10918,01.432,553
2024-05-01T10:23:56,42.805,6.029,CST-1368DR,4089,4213,10915,01.433,553
2024-05-01T10:26:58,42.805,6.029,CST-1368DR,4089,4212,10914,01.433,553
2024-05-01T10:29:59,42.805,6.029,CST-1368DR,4089,4213,10915,01.433,553
2024-05-01T10:33:01,42.805,6.029,CST-1368DR,4089,4212,10913,01.433,553
2024-05-01T10:36:02,42.805,6.029,CST-1368DR,4089,4212,10914,01.433,553
2024-05-01T10:39:04,42.805,6.029,CST-1368DR,4089,4214,10919,01.431,553
2024-05-01T10:42:05,42.805,6.029,CST-1368DR,4089,4212,10914,01.433,553
2024-05-01T10:45:07,42.805,6.029,CST-1368DR,4089,4213,10916,01.432,553
2024-05-01T10:48:09,42.805,6.029,CST-1368DR,4089,4214,10920,01.431,553
2024-05-01T10:51:10,42.805,6.029,CST-1368DR,4088,4211,10914,01.433,553
2024-05-01T10:54:12,42.805,6.029,CST-1368DR,4088,4212,10917,01.432,553
2024-05-01T10:57:13,42.805,6.029,CST-1368DR,4088,4213,10920,01.431,553
2024-05-01T11:00:15,42.805,6.029,CST-1368DR,4089,4212,10913,01.433,553
2024-05-01T11:03:16,42.805,6.029,CST-1368DR,4088,4210,10912,01.434,553
2024-05-01T11:06:18,42.805,6.029,CST-1368DR,4088,4211,10913,01.433,553
2024-05-01T11:09:20,42.805,6.029,CST-1368DR,4088,4209,10910,01.434,553
2024-05-01T11:12:21,42.805,6.029,CST-1368DR,4089,4212,10913,01.433,553
2024-05-01T11:15:23,42.805,6.029,CST-1368DR,4088,4210,10912,01.434,553
2024-05-01T11:18:24,42.805,6.029,CST-1368DR,4088,4212,10916,01.432,553
2024-05-01T11:21:26,42.805,6.029,CST-1368DR,4089,4214,10919,01.431,553
2024-05-01T11:24:28,42.805,6.029,CST-1368DR,4089,4215,10921,01.430,553
2024-05-01T11:27:29,42.805,6.029,CST-1368DR,4089,4211,10911,01.434,553
2024-05-01T11:30:31,42.805,6.029,CST-1368DR,4089,4213,10916,01.432,553
2024-05-01T11:33:32,42.805,6.029,CST-1368DR,4088,4212,10915,01.433,553
2024-05-01T11:36:34,42.805,6.029,CST-1368DR,4089,4212,10914,01.433,553
2024-05-01T11:39:35,42.805,6.029,CST-1368DR,4089,4210,10910,01.434,553
2024-05-01T11:42:37,42.805,6.029,CST-1368DR,4088,4210,10912,01.434,553
2024-05-01T11:45:39,42.805,6.029,CST-1368DR,4088,4212,10915,01.433,553
2024-05-01T11:48:40,42.805,6.029,CST-1368DR,4088,4209,10910,01.434,553
2024-05-01T11:51:42,42.805,6.029,CST-1368DR,4088,4210,10911,01.434,553
2024-05-01T11:54:43,42.805,6.029,CST-1368DR,4088,4208,10906,01.436,553
2024-05-01T11:57:45,42.805,6.029,CST-1368DR,4088,4211,10913,01.433,553
2024-05-01T12:00:46,42.805,6.029,CST-1368DR,4088,4212,10917,01.432,553
2024-05-01T12:03:48,42.805,6.029,CST-1368DR,4088,4213,10919,01.431,553
2024-05-01T12:06:50,42.805,6.029,CST-1368DR,4088,4211,10913,01.433,553
2024-05-01T12:09:51,42.805,6.029,CST-1368DR,4088,4213,10919,01.431,553
2024-05-01T12:12:53,42.805,6.029,CST-1368DR,4088,4200,10885,01.444,553
2024-05-01T12:15:54,42.805,6.029,CST-1368DR,4088,4211,10913,01.433,553
2024-05-01T12:18:56,42.805,6.029,CST-1368DR,4088,4214,10921,01.430,553
2024-05-01T12:21:58,42.805,6.029,CST-1368DR,4088,4217,10929,01.428,553
2024-05-01T12:24:59,42.805,6.029,CST-1368DR,4088,4212,10917,01.432,553
2024-05-01T12:28:01,42.805,6.029,CST-1368DR,4088,4212,10917,01.432,553
2024-05-01T12:31:02,42.805,6.029,CST-1368DR,4088,4210,10912,01.434,553
2024-05-01T12:34:04,42.805,6.029,CST-1368DR,4088,4213,10918,01.432,553
2024-05-01T12:37:05,42.805,6.029,CST-1368DR,4088,4213,10919,01.431,553
2024-05-01T12:40:07,42.805,6.029,CST-1368DR,4088,4211,10913,01.433,553
2024-05-01T12:43:09,42.805,6.029,CST-1368DR,4088,4207,10904,01.437,553
2024-05-01T12:46:10,42.805,6.029,CST-1368DR,4088,4210,10912,01.434,553
2024-05-01T12:49:12,42.805,6.029,CST-1368DR,4088,4212,10917,01.432,553
2024-05-01T12:52:13,42.805,6.029,CST-1368DR,4088,4212,10915,01.433,553
2024-05-01T12:55:15,42.805,6.029,CST-1368DR,4088,4213,10919,01.431,553
2024-05-01T12:58:16,42.805,6.029,CST-1368DR,4088,4213,10919,01.431,553
2024-05-01T13:01:18,42.805,6.029,CST-1368DR,4088,4213,10918,01.432,553
2024-05-01T13:04:20,42.805,6.029,CST-1368DR,4088,4212,10917,01.432,553
2024-05-01T13:07:21,42.805,6.029,CST-1368DR,4088,4212,10916,01.432,553
2024-05-01T13:10:23,42.805,6.029,CST-1368DR,4088,4214,10921,01.430,553
2024-05-01T13:13:24,42.805,6.029,CST-1368DR,4088,4210,10911,01.434,553
2024-05-01T13:16:26,42.805,6.029,CST-1368DR,4088,4211,10913,01.433,553
2024-05-01T13:19:28,42.805,6.029,CST-1368DR,4088,4213,10918,01.432,553
2024-05-01T13:22:29,42.805,6.029,CST-1368DR,4088,4213,10918,01.432,553
2024-05-01T13:25:31,42.805,6.029,CST-1368DR,4088,4213,10919,01.431,553
2024-05-01T13:28:32,42.805,6.029,CST-1368DR,4088,4217,10928,01.428,553
2024-05-01T13:31:34,42.805,6.029,CST-1368DR,4088,4214,10921,01.430,553
2024-05-01T13:34:35,42.805,6.029,CST-1368DR,4088,4215,10924,01.429,553
2024-05-01T13:37:37,42.805,6.029,CST-1368DR,4088,4213,10920,01.431,553
2024-05-01T13:40:39,42.805,6.029,CST-1368DR,4088,4214,10921,01.430,553
2024-05-01T13:43:40,42.805,6.029,CST-1368DR,4088,4213,10918,01.432,553
2024-05-01T13:46:42,42.805,6.029,CST-1368DR,4088,4214,10923,01.430,553
2024-05-01T13:49:43,42.805,6.029,CST-1368DR,4088,4214,10921,01.430,553
2024-05-01T13:52:45,42.805,6.029,CST-1368DR,4088,4214,10922,01.430,553
2024-05-01T13:55:46,42.805,6.029,CST-1368DR,4088,4214,10921,01.430,553
2024-05-01T13:58:48,42.805,6.029,CST-1368DR,4088,4200,10886,01.443,553
2024-05-01T14:01:50,42.805,6.029,CST-1368DR,4088,4215,10925,01.429,553
2024-05-01T14:04:51,42.805,6.029,CST-1368DR,4088,4215,10925,01.429,553
2024-05-01T14:07:53,42.805,6.029,CST-1368DR,4088,4215,10923,01.430,553
2024-05-01T14:10:54,42.805,6.029,CST-1368DR,4088,4215,10923,01.430,553
2024-05-01T14:13:56,42.805,6.029,CST-1368DR,4088,4213,10919,01.431,553
2024-05-01T14:16:58,42.805,6.029,CST-1368DR,4088,4215,10923,01.430,553
2024-05-01T14:19:59,42.805,6.029,CST-1368DR,4088,4216,10927,01.428,553
2024-05-01T14:23:01,42.805,6.029,CST-1368DR,4088,4216,10926,01.429,553
2024-05-01T14:26:02,42.805,6.029,CST-1368DR,4088,4215,10924,01.429,553
2024-05-01T14:29:04,42.805,6.029,CST-1368DR,4088,4216,10926,01.429,553
2024-05-01T14:32:05,42.805,6.029,CST-1368DR,4088,4214,10923,01.430,553
2024-05-01T14:35:07,42.805,6.029,CST-1368DR,4088,4213,10920,01.431,553
2024-05-01T14:38:09,42.805,6.029,CST-1368DR,4088,4216,10926,01.429,553
2024-05-01T14:41:10,42.805,6.029,CST-1368DR,4088,4215,10923,01.430,553
2024-05-01T14:44:12,42.805,6.029,CST-1368DR,4088,4213,10918,01.432,553
2024-05-01T14:47:13,42.805,6.029,CST-1368DR,4088,4215,10924,01.429,553
2024-05-01T14:50:15,42.805,6.029,CST-1368DR,4088,4214,10922,01.430,553
2024-05-01T14:53:16,42.805,6.029,CST-1368DR,4088,4215,10925,01.429,553
2024-05-01T14:56:18,42.805,6.029,CST-1368DR,4088,4215,10924,01.429,553
2024-05-01T14:59:20,42.805,6.029,CST-1368DR,4088,4215,10925,01.429,553
2024-05-01T15:02:21,42.805,6.029,CST-1368DR,4088,4214,10922,01.430,553
2024-05-01T15:05:23,42.805,6.029,CST-1368DR,4088,4216,10928,01.428,553
2024-05-01T15:08:24,42.805,6.029,CST-1368DR,4088,4216,10926,01.429,553
2024-05-01T15:11:26,42.805,6.029,CST-1368DR,4088,4214,10922,01.430,553
2024-05-01T15:14:28,42.805,6.029,CST-1368DR,4088,4213,10920,01.431,553
2024-05-01T15:17:29,42.805,6.029,CST-1368DR,4088,4216,10926,01.429,553
2024-05-01T15:20:31,42.805,6.029,CST-1368DR,4088,4213,10920,01.431,553
2024-05-01T15:23:32,42.805,6.029,CST-1368DR,4088,4217,10929,01.428,553
2024-05-01T15:26:34,42.805,6.029,CST-1368DR,4088,4216,10928,01.428,553
2024-05-01T15:29:35,42.805,6.029,CST-1368DR,4088,4217,10930,01.427,553
2024-05-01T15:32:37,42.805,6.029,CST-1368DR,4088,4216,10928,01.428,553
2024-05-01T15:35:39,42.805,6.029,CST-1368DR,4088,4216,10926,01.429,553
2024-05-01T15:38:40,42.805,6.029,CST-1368DR,4088,4216,10927,01.428,553
2024-05-01T15:41:42,42.805,6.029,CST-1368DR,4088,4219,10934,01.426,553
2024-05-01T15:44:43,42.805,6.029,CST-1368DR,4088,4216,10928,01.428,553
2024-05-01T15:47:45,42.805,6.029,CST-1368DR,4088,4215,10925,01.429,553
2024-05-01T15:50:46,42.805,6.029,CST-1368DR,4088,4217,10928,01.428,553
2024-05-01T15:53:48,42.805,6.029,CST-1368DR,4088,4214,10923,01.430,553
2024-05-01T15:56:50,42.805,6.029,CST-1368DR,4088,4216,10926,01.429,553
2024-05-01T15:59:51,42.805,6.029,CST-1368DR,4088,4217,10928,01.428,553
2024-05-01T16:02:55,42.805,6.029,CST-1368DR,4088,4216,10927,01.428,553
2024-05-01T16:05:56,42.805,6.029,CST-1368DR,4088,4216,10928,01.428,553
2024-05-01T16:08:58,42.805,6.029,CST-1368DR,4088,4216,10926,01.429,553
2024-05-01T16:11:59,42.805,6.029,CST-1368DR,4088,4213,10918,01.432,553
2024-05-01T16:15:01,42.805,6.029,CST-1368DR,4088,4215,10924,01.429,553
2024-05-01T16:18:03,42.805,6.029,CST-1368DR,4088,4214,10922,01.430,553
2024-05-01T16:21:04,42.805,6.029,CST-1368DR,4088,4212,10917,01.432,553
2024-05-01T16:24:06,42.805,6.029,CST-1368DR,4088,4214,10923,01.430,553
2024-05-01T16:27:07,42.805,6.029,CST-1368DR,4088,4215,10924,01.429,553
2024-05-01T16:30:09,42.805,6.029,CST-1368DR,4088,4216,10926,01.429,553
2024-05-01T16:33:11,42.805,6.029,CST-1368DR,4088,4216,10926,01.429,553
2024-05-01T16:36:12,42.805,6.029,CST-1368DR,4088,4216,10926,01.429,553